Weather History for Rochester, NH

Change the Weather History Date:

Sunday, January 19, 2014

  Actual Average (KSFM) Record (KSFM)
Temperature  
Mean Temperature 28 °F -  
Max Temperature 30 °F 26 °F 42 °F (1999)
Min Temperature 27 °F 8 °F -18 °F (2003)
Degree Days  
Heating Degree Days 36    
Moisture  
Dew Point 25 °F    
Average Humidity 83    
Maximum Humidity 92    
Minimum Humidity 66    
Precipitation  
Precipitation 0.05 in - - ()
Sea Level Pressure  
Sea Level Pressure 29.56 in    
Wind  
Wind Speed 5 mph (SW)    
Max Wind Speed 8 mph    
Max Gust Speed 21 mph    
Visibility 6 miles    
Events Fog , Snow    
Averages and records for this station are not official NWS values.
T = Trace of Precipitation, MM = Missing Value Source: NWS Daily Summary

Daily Weather History Graph

Daily Weather History Graph

Search for Another Location

Airport:

Trip Planner

Search our weather history database for the weather conditions in past years. The results will help you decide how hot, cold, wet, or windy it might be!

Date:

Astronomy

Jan. 19, 2014 Rise Set
Actual Time 7:10 AM EST 4:38 PM EST
Civil Twilight 6:39 AM EST 5:09 PM EST
Nautical Twilight 6:04 AM EST 5:44 PM EST
Astronomical Twilight 5:30 AM EST 6:18 PM EST
Moon 8:21 PM EST (1/19) 8:32 AM EST (1/19)
Length of Visible Light 10h 30m
Length of Day
9h 27m
Waning Gibbous, 89% of the Moon is Illuminated
Jan 19
Waning Gibbous
Jan 24
Last Quarter
Jan 30
New
Feb 6
First Quarter
Feb 14
Full

Hourly Weather History & Observations

Time (EST) Temp. Windchill Dew Point Humidity Pressure Visibility Wind Dir Wind Speed Gust Speed Precip Events Conditions
12:15 AM 30.0 °F 22.4 °F 28.0 °F 92% 29.66 in 2.5 mi NNW 8.1 mph - 0.00 in Snow Light Snow
12:25 AM 30.0 °F 22.4 °F 28.0 °F 92% 29.65 in 3.0 mi NNW 8.1 mph - 0.00 in Snow Light Snow
12:51 AM 28.9 °F 21.9 °F 27.0 °F 92% 29.67 in 4.0 mi NW 6.9 mph - 0.00 in Snow Light Snow
1:51 AM 28.9 °F 22.8 °F 27.0 °F 92% 29.68 in 7.0 mi NW 5.8 mph - 0.00 in   Overcast
2:51 AM 28.9 °F 23.9 °F 27.0 °F 92% 29.69 in 10.0 mi NW 4.6 mph - N/A   Overcast
3:51 AM 28.0 °F - 26.1 °F 92% 29.66 in 10.0 mi Calm Calm - N/A   Mostly Cloudy
4:38 AM 28.0 °F 24.2 °F 26.1 °F 92% 29.67 in 10.0 mi SW 3.5 mph - N/A   Overcast
4:51 AM 28.9 °F 25.2 °F 26.1 °F 89% 29.67 in 10.0 mi Variable 3.5 mph - N/A   Overcast
5:51 AM 28.9 °F - 27.0 °F 92% 29.66 in 9.0 mi Calm Calm - N/A   Overcast
6:51 AM 28.9 °F - 26.1 °F 89% 29.65 in 10.0 mi Calm Calm - N/A   Overcast
7:51 AM 28.9 °F - 27.0 °F 92% 29.64 in 5.0 mi Calm Calm - N/A   Overcast
8:29 AM 28.9 °F 25.2 °F 27.0 °F 92% 29.62 in 3.0 mi South 3.5 mph - 0.00 in Snow Light Snow
8:43 AM 30.0 °F 26.5 °F 28.0 °F 92% 29.62 in 2.5 mi South 3.5 mph - 0.00 in Snow Light Snow
8:51 AM 30.0 °F 26.5 °F 28.0 °F 92% 29.62 in 1.0 mi South 3.5 mph - 0.00 in Snow Light Snow
8:57 AM 30.0 °F 26.5 °F 28.0 °F 92% 29.61 in 0.8 mi South 3.5 mph - 0.00 in Snow Light Snow
9:17 AM 30.0 °F 26.5 °F 28.0 °F 92% 29.61 in 0.5 mi South 3.5 mph - 0.01 in Fog , Snow Snow
9:51 AM 30.9 °F 27.5 °F 28.9 °F 92% 29.60 in 0.8 mi Variable 3.5 mph - 0.03 in Snow Light Snow
10:14 AM 30.9 °F 26.2 °F 28.9 °F 92% 29.58 in 1.0 mi Variable 4.6 mph - 0.01 in Snow Light Snow
10:51 AM 30.9 °F - 28.0 °F 89% 29.57 in 1.8 mi North - - 0.01 in Snow Light Snow
11:09 AM 30.0 °F 24.1 °F 27.0 °F 88% 29.55 in 0.8 mi Variable 5.8 mph - 0.01 in Snow Light Snow
11:19 AM 30.9 °F 26.2 °F 28.0 °F 89% 29.54 in 1.0 mi Variable 4.6 mph - 0.01 in Snow Light Snow
11:35 AM 30.0 °F 24.1 °F 27.0 °F 88% 29.53 in 2.5 mi Variable 5.8 mph - 0.01 in Snow Light Snow
11:45 AM 30.2 °F 23.4 °F 26.6 °F 86% 29.53 in 1.0 mi Variable 6.9 mph - 0.01 in Snow Light Snow
11:46 AM 30.0 °F 22.4 °F 26.1 °F 85% 29.53 in 1.0 mi SSW 8.1 mph - 0.01 in Snow Light Snow
12:11 PM 30.0 °F 26.5 °F 27.0 °F 88% 29.52 in 3.0 mi Variable 3.5 mph - 0.00 in Snow Light Snow
12:24 PM 30.0 °F 23.2 °F 25.0 °F 82% 29.51 in 6.0 mi Variable 6.9 mph - 0.00 in   Haze
12:33 PM 30.0 °F 22.4 °F 24.1 °F 79% 29.50 in 2.5 mi WSW 8.1 mph - 0.00 in Snow Light Snow
12:37 PM 30.0 °F - 24.1 °F 79% 29.50 in 5.0 mi North - - 0.00 in   Haze
12:49 PM 30.2 °F - 23.0 °F 75% 29.49 in 9.0 mi North - - 0.00 in   Overcast
12:51 PM 30.0 °F - 23.0 °F 75% 29.49 in 9.0 mi North - - 0.00 in   Overcast
1:35 PM 30.0 °F 24.1 °F 19.9 °F 66% 29.48 in 9.0 mi Variable 5.8 mph 20.7 mph N/A   Mostly Cloudy
1:44 PM 30.0 °F 25.2 °F 21.0 °F 69% 29.48 in 10.0 mi Variable 4.6 mph - N/A   Mostly Cloudy
1:51 PM 30.0 °F - 21.0 °F 69% 29.48 in 10.0 mi North - - N/A   Mostly Cloudy
2:17 PM 30.0 °F 23.2 °F 19.9 °F 66% 29.48 in 10.0 mi Variable 6.9 mph - N/A   Overcast
2:51 PM 30.0 °F 24.1 °F 19.9 °F 66% 29.49 in 10.0 mi Variable 5.8 mph - N/A   Mostly Cloudy
3:51 PM 28.9 °F 25.2 °F 19.9 °F 69% 29.49 in 10.0 mi Variable 3.5 mph - N/A   Scattered Clouds
4:51 PM 27.0 °F 23.0 °F 19.9 °F 75% 29.49 in 10.0 mi Variable 3.5 mph - N/A   Clear
5:51 PM 27.0 °F - 21.0 °F 78% 29.49 in 10.0 mi Calm Calm - N/A   Clear
6:51 PM 27.0 °F 23.0 °F 21.0 °F 78% 29.49 in 10.0 mi Variable 3.5 mph - N/A   Scattered Clouds
7:51 PM 27.0 °F 23.0 °F 21.0 °F 78% 29.49 in 10.0 mi Variable 3.5 mph - N/A   Overcast
8:51 PM 28.0 °F 21.7 °F 19.9 °F 72% 29.50 in 10.0 mi Variable 5.8 mph - N/A   Overcast
9:51 PM 27.0 °F 23.0 °F 19.0 °F 72% 29.50 in 10.0 mi Variable 3.5 mph - N/A   Scattered Clouds
10:51 PM 27.0 °F 21.6 °F 19.0 °F 72% 29.49 in 10.0 mi Variable 4.6 mph - N/A   Overcast
11:51 PM 27.0 °F - 19.9 °F 75% 29.49 in 10.0 mi Calm Calm - N/A   Overcast